CW2798 Aduanas ES current weather conditions

sailwx.info

Wind from 345 at 10 knots gusting 16

Air temperature 22.2° C
Dewpoint 17.4° C

Last reported at 2017-May-30 11:30 UTC.
Time now 2017-May-30 12:58 UTC

Location: N 38°48' E 000°11'.
View on Google Maps.

See reports from other nearby stations

  
Tides and Currents Weather Stations Pressure Air Temp Water Temp Dewpoint Dewpoint Depression Visibility Wind Speed Wind Dir Waves Ship Positions
date/time (UTC)wind fromknots sea level pressurealtimeterstation pressurevisibilityair tempwater tempwave heightnotes
2017-May-30 11:30 345 10 gusting 16 22.2
2017-May-30 10:30 346 6 gusting 15 23.3
2017-May-30 10:15 350 6 gusting 12 23.3
2017-May-30 09:45 302 6 gusting 14 22.8
2017-May-30 09:30 312 6 gusting 11 22.8
2017-May-30 09:00 350 6 gusting 9 22.2
2017-May-30 08:15 318 6 gusting 15 21.7
2017-May-30 08:00 335 6 gusting 13 21.7
2017-May-30 07:45 328 6 gusting 8 21.7
2017-May-30 07:30 320 4 gusting 8 21.7
2017-May-30 07:15 018 3 gusting 7 22.2
2017-May-30 06:30 351 2 gusting 6 21.7
2017-May-30 06:15 289 3 gusting 6 21.1
2017-May-30 06:00 309 2 gusting 4 20.6
2017-May-30 05:30 305 4 gusting 6 20.6
2017-May-30 05:00 317 4 gusting 6 20.6
2017-May-30 04:15 303 3 gusting 6 20.6
2017-May-30 04:00 322 4 gusting 6 20.6
2017-May-30 03:45 325 2 gusting 5 20.6
2017-May-30 03:30 327 3 gusting 5 20.6
2017-May-30 03:15 299 4 gusting 8 20.6
2017-May-30 03:00 317 4 gusting 6 20.6
2017-May-30 02:45 327 4 gusting 6 20.6
2017-May-30 02:30 315 4 gusting 9 20.6
2017-May-30 02:15 334 5 gusting 8 20.6
2017-May-30 02:00 294 5 gusting 6 20.6
2017-May-30 01:45 305 4 gusting 7 20.6
2017-May-30 01:30 264 6 gusting 13 20.6
2017-May-30 01:15 268 5 gusting 10 20.6
2017-May-30 01:00 303 4 gusting 6 20.6
2017-May-30 00:45 284 4 gusting 9 20.6
2017-May-30 00:30 283 3 gusting 6 20.6
2017-May-30 00:15 256 4 gusting 7 20.6
2017-May-29 23:45 277 3 gusting 8 20.6
2017-May-29 23:15 297 3 gusting 6 21.1
2017-May-29 23:00 301 3 gusting 6 21.1
2017-May-29 22:45 295 2 gusting 6 21.1
2017-May-29 22:30 309 2 gusting 6 21.1
2017-May-29 22:15 313 2 gusting 6 21.1
2017-May-29 22:00 320 3 gusting 4 21.1
2017-May-29 21:00 303 3 gusting 6 21.1
2017-May-29 20:45 306 2 gusting 5 21.1
2017-May-29 20:30 274 21.1
2017-May-29 20:15 307 0 gusting 2 21.1
2017-May-29 20:00 353 0 gusting 1 21.7
2017-May-29 19:45 335 1 gusting 4 21.7
2017-May-29 19:30 350 1 gusting 1 21.7
2017-May-29 19:15 349 3 gusting 5 21.7
2017-May-29 18:45 352 1 gusting 3 21.7
2017-May-29 18:30 001 3 gusting 8 21.7
2017-May-29 18:15 008 5 gusting 7 21.7
2017-May-29 18:00 034 2 gusting 9 22.2
2017-May-29 17:45 032 3 gusting 5 22.2
2017-May-29 17:30 034 3 gusting 7 22.2
2017-May-29 17:15 056 3 gusting 6 22.2
2017-May-29 17:00 053 3 gusting 6 22.2
2017-May-29 16:45 059 4 gusting 8 22.2
2017-May-29 16:15 071 2 gusting 4 22.8
2017-May-29 15:45 349 2 gusting 8 22.8
2017-May-29 15:30 037 3 gusting 4 22.8
2017-May-29 15:00 352 3 gusting 8 22.8
2017-May-29 14:45 030 5 gusting 8 22.2
2017-May-29 13:45 022 3 gusting 7 22.2
2017-May-29 13:15 324 1 gusting 3 22.2
2017-May-29 12:45 354 4 gusting 3 21.7
2017-May-29 12:30 336 6 gusting 11 21.7
2017-May-29 12:15 349 6 gusting 10 21.7
2017-May-29 11:45 314 4 gusting 12 22.2
2017-May-29 10:45 016 3 gusting 3 21.7
2017-May-29 10:30 317 3 gusting 6 21.7
2017-May-29 10:15 323 6 gusting 11 21.7
2017-May-29 09:30 305 2 gusting 8 21.7
2017-May-29 09:15 351 5 gusting 10 21.7
2017-May-29 09:00 351 4 gusting 10 22.2
2017-May-29 08:45 347 6 gusting 12 21.7
2017-May-29 08:15 332 4 gusting 6 21.7
2017-May-29 07:30 347 3 gusting 6 21.7
2017-May-29 07:15 341 2 gusting 6 21.7
2017-May-29 07:00 317 1 gusting 5 21.1
2017-May-29 06:45 273 3 gusting 1 21.1
2017-May-29 06:30 346 3 gusting 6 20.6
2017-May-29 06:15 312 3 gusting 5 20.6
2017-May-29 06:00 321 3 gusting 5 20.6
2017-May-29 05:45 308 2 gusting 6 20.6
2017-May-29 05:00 272 1 gusting 4 20.6
2017-May-29 04:30 321 4 gusting 7 20.6
2017-May-29 04:15 310 4 gusting 7 20.6
2017-May-29 04:00 321 4 gusting 7 20.6
2017-May-29 03:45 304 3 gusting 7 20.0
2017-May-29 03:30 305 4 gusting 8 20.0
2017-May-29 03:15 324 2 gusting 6 20.0
2017-May-29 03:00 300 3 gusting 6 20.0
2017-May-29 02:30 290 5 gusting 10 20.6
2017-May-29 01:45 316 4 gusting 6 20.6
2017-May-29 01:15 319 5 gusting 6 20.6
2017-May-29 01:00 315 3 gusting 6 20.6
2017-May-29 00:45 315 4 gusting 8 20.6
2017-May-29 00:30 323 3 gusting 6 20.6
2017-May-29 00:15 330 4 gusting 6 21.1
2017-May-29 00:00 323 5 gusting 7 21.1
2017-May-28 23:45 328 4 gusting 7 21.1
2017-May-28 23:30 310 4 gusting 6 21.1
2017-May-28 23:15 317 4 gusting 6 21.1
2017-May-28 23:00 310 5 gusting 10 21.1
2017-May-28 22:45 312 2 gusting 6 21.1
2017-May-28 22:15 254 0 gusting 2 21.7
2017-May-28 22:00 258 0 gusting 1 21.7
2017-May-28 21:45 272 0 gusting 2 21.7
2017-May-28 21:00 119 21.7
2017-May-28 20:15 276 0 gusting 2 21.7
2017-May-28 20:00 281 0 gusting 1 21.7
2017-May-28 19:45 353 1 gusting 3 21.7
2017-May-28 19:15 334 0 gusting 2 22.2
2017-May-28 19:00 348 2 gusting 4 22.2
2017-May-28 18:45 029 2 gusting 6 22.2
2017-May-28 18:30 341 1 gusting 4 22.8
2017-May-28 18:00 035 2 gusting 5 23.3
2017-May-28 17:45 356 4 gusting 6 23.3
2017-May-28 17:30 345 5 gusting 7 23.3
2017-May-28 17:15 341 3 gusting 8 23.9
2017-May-28 17:00 029 5 gusting 6 23.3
2017-May-28 16:45 333 6 gusting 10 23.3
2017-May-28 16:15 344 6 gusting 10 23.3
2017-May-28 16:00 334 6 gusting 9 23.3
2017-May-28 15:45 016 6 gusting 6 23.9
2017-May-28 15:15 351 7 gusting 11 23.3
2017-May-28 15:00 339 7 gusting 11 23.3
2017-May-28 14:45 340 5 gusting 12 23.9
2017-May-28 14:15 355 6 gusting 12 23.3
2017-May-28 14:00 003 6 gusting 12 23.3
2017-May-28 13:45 019 6 gusting 12 23.9
2017-May-28 13:15 357 7 gusting 14 23.3
2017-May-28 12:45 013 5 gusting 10 24.4
2017-May-28 12:00 330 8 gusting 12 23.3